Regional Weather Roundup
Issued by NWS

Home | Current Version | Previous Version | Graphics & Text | Print | Product List | Glossary On
Versions: 1 2 3 4 5 6 7 8 9 10 11 12 13 14 15 16 17 18 19 20 21 22 23 24 25 26 27 28 29 30 31 32 33 34 35 36 37 38 39 40 41 42 43 44 45 46 47 48 49 50
852
ASUS43 KDMX 200606
RWRIA

WEATHER ROUNDUP FOR IOWA
NATIONAL WEATHER SERVICE DES MOINES IA
100 AM CDT SUN MAY 20 2018

NOTE: "FAIR" INDICATES FEW OR NO CLOUDS BELOW 12,000 FEET WITH NO
SIGNIFICANT WEATHER AND/OR OBSTRUCTIONS TO VISIBILITY.

* - THESE STATIONS ARE NOT NWS STATIONS...THUS NOT UNDER NWS
QUALITY CONTROL.  THEY ALSO DO NOT REPORT WEATHER SUCH
AS PRECIPITATION OR FOG.

IAZ001>003-012>014-020>022-031>034-043>046-200700-
   NORTHWEST IOWA

CITY           SKY/WX    TMP DP  RH WIND       PRES   REMARKS
CARROLL *      CLOUDY   N/A N/A N/A N10       30.05R
CHEROKEE *     LGT RAIN  53  53 100 N8        30.08S
DENISON *      CLOUDY    57  57 100 N8        30.06F
LE MARS *      LGT RAIN  54  54 100 NE10      30.09S
ORANGE CITY *  RAIN      54  52  94 NE5       30.10R
SHELDON *      RAIN      52  52 100 NE16G23   30.08F
SIOUX CITY     CLOUDY    56  54  93 N8        30.07F
6HR MIN TEMP:  55; 6HR MAX TEMP:  59; 6HR PCP:  0.07;

SPENCER        CLOUDY    55  48  77 NE13      30.11R
6HR MIN TEMP:  55; 6HR MAX TEMP:  62; 6HR PCP: TRACE;

STORM LAKE *   CLOUDY    54  52  94 NE16      30.07R
$$

IAZ055>058-069>071-079>083-090>094-200700-
   SOUTHWEST IOWA

CITY           SKY/WX    TMP DP  RH WIND       PRES   REMARKS
ATLANTIC *     CLOUDY    59  57  94 N8        30.02S
AUDUBON *      CLOUDY    57  54  88 N9G17     30.03F
CLARINDA *       N/A     61  57  88 N8        30.03R
COUNCIL BLFS * CLEAR     57  57 100 N9        30.03S
CRESTON *      CLOUDY    59  55  88 N12       30.01S
HARLAN  *      CLOUDY    59  57  94 NE13      30.06S
LAMONI         CLOUDY    62  59  90 NW8       29.98F
6HR MIN TEMP:  61; 6HR MAX TEMP:  74; 6HR PCP:  0.08;

RED OAK *      CLOUDY    59  55  88 N7        30.02R
SHENANDOAH *   MOCLDY    59  57  94 N7        30.02R
$$

IAZ047>049-059>061-072>074-084-200700-
   CENTRAL IOWA

CITY           SKY/WX    TMP DP  RH WIND       PRES   REMARKS
AMES           CLOUDY    61  55  81 N10       30.02R
6HR MIN TEMP:  61; 6HR MAX TEMP:  67;

ANKENY *       CLOUDY    63  57  82 N7        30.01R
BOONE *        CLOUDY    59  54  82 N13       30.02R
CHARITON *     LGT RAIN  63  61  94 CALM      29.97F
DES MOINES     PTCLDY    64  58  80 N9        29.98R
6HR MIN TEMP:  64; 6HR MAX TEMP:  71;

GRINNELL*      CLOUDY    64  59  86 N8        29.99R
KNOXVILLE *    CLOUDY    63  61  94 NW7       29.97R
MARSHALLTOWN   CLOUDY    61  57  87 NE15      29.99R
6HR MIN TEMP:  61; 6HR MAX TEMP:  69;

NEWTON *       CLOUDY    63  59  88 N10       29.98R
PELLA *        CLOUDY    64  62  93 NW3       30.00R
PERRY *        CLOUDY    60  57  90 N14       30.03R
$$

IAZ004>006-015-016-023>025-035-036-200700-
   NORTH CENTRAL IOWA

CITY           SKY/WX    TMP DP  RH WIND       PRES   REMARKS
ALGONA *       CLOUDY    52  48  87 NE15      30.08R
CLARION *      CLOUDY    55  48  76 NE14      30.05R
ESTHERVILLE    CLOUDY    52  46  80 NE13      30.10R
6HR MIN TEMP:  52; 6HR MAX TEMP:  59;

FORT DODGE *   LGT RAIN  57  51  80 NE12      30.07R
MASON CITY     PTCLDY    53  45  74 NE15      30.07R
6HR MIN TEMP:  52; 6HR MAX TEMP:  65;

FOREST CITY *  MOCLDY    52  46  82 NE13G21   30.06R
WEBSTER CITY * CLOUDY    57  52  82 N13       30.03R
IOWA FALLS *   CLOUDY    58  53  81 N9G16     30.03R
$$

IAZ007>011-017>019-026>030-037>042-050>054-066-200700-
   NORTHEAST IOWA

CITY           SKY/WX    TMP DP  RH WIND       PRES   REMARKS
CEDAR RAPIDS   MOCLDY    64  61  90 N3        29.96R
6HR MIN TEMP:  61; 6HR MAX TEMP:  73;

CHARLES CITY * MOCLDY    54  46  76 NE15G22   30.04R
CLINTON *      MOCLDY    67  62  84 E8        29.98R
DECORAH *      CLOUDY    54  48  82 NE12      30.03S
DUBUQUE        CLOUDY    64  62  93 E7        30.00R
6HR MIN TEMP:  64; 6HR MAX TEMP:  74; 6HR PCP:  0.32;

MONTICELLO *   CLOUDY    66  64  94 NE8       29.97R
OELWEIN *      CLOUDY    59  54  82 NE12G21   30.01R
WATERLOO       CLOUDY    59  53  80 NE12G21   30.00R
6HR MIN TEMP:  58; 6HR MAX TEMP:  67; 6HR PCP:  0.01;

$$

IAZ064-065-067-068-078-200700-
   EAST CENTRAL IOWA

CITY           SKY/WX    TMP DP  RH WIND       PRES   REMARKS
DAVENPORT      FAIR      68  60  75 E9        29.97S
6HR MIN TEMP:  68; 6HR MAX TEMP:  78; 6HR PCP: TRACE;

IOWA CITY      FAIR      66  64  93 N6        29.97R
6HR MIN TEMP:  66; 6HR MAX TEMP:  76; 6HR PCP:  0.20;

MT. PLEASANT * CLEAR     64  64 100 CALM      29.95R
MUSCATINE *    FAIR      66  63  88 CALM      29.95S
QUAD CITIES    FAIR      65  62  90 E6        29.94F
6HR MIN TEMP:  65; 6HR MAX TEMP:  80;

$$

IAZ062-063-075>077-085>089-095>099-200700-
   SOUTHEAST IOWA

CITY           SKY/WX    TMP DP  RH WIND       PRES   REMARKS
BURLINGTON     PTCLDY    66  63  90 S3        29.93F
6HR MIN TEMP:  66; 6HR MAX TEMP:  78;

FAIRFIELD *    PTCLDY    64  63  94 N7        29.94S
FORT MADISON * PTCLDY    66  66 100 CALM      29.94S
KEOKUK *       CLOUDY    64  64 100 NE3       29.92F FOG
OSKALOOSA *    MOCLDY    63  61  94 N5        29.97R
CENTERVILLE *    N/A     64  64 100 CALM      29.98S
OTTUMWA        PTCLDY    62  60  93 N6        29.95R
6HR MIN TEMP:  61; 6HR MAX TEMP:  77;

WASHINGTON *   PTCLDY    66  66 100 NE7       29.96R
$$

ABBREVIATIONS USED IN REMARKS
   TC - TEMPERATURES IN CELSIUS
  WCI - WIND CHILL INDEX
   HX - HEAT INDEX
  VSB - VISIBILITY
$$





USA.gov is the U.S. government's official web portal to all federal, state and local government web resources and services.